Flag for Poland Weather past 2 weeks in Poznan, Poland

Now
36 °F

Snow. Passing clouds.


Feels Like: 27 °F
Forecast: 29 / 37 °F
Wind: 14 mph from South

Location: Poznan Airport

Current Time: Jan 29, 2015 at 2:01:49 AM

Latest Report: Jan 29, 2015 at 1:30 AM


Visibility: 4 mi

Pressure: 29.30 "Hg

Humidity: 81%

Dew point: 30 °F

Location of PoznanLocation

Historic Weather in Poznan — Graph

°F

Poznan temperature yesterday

Maximum temperature yesterday: 39 °F (at 2:30 PM)
Minimum temperature yesterday: 34 °F (at 2:00 AM)
Average temperature yesterday: 36 °F

Past Weeks' High & Low Weather Summary

 TemperatureHumidityPressure
High50 °F (Jan 14, 2:30 AM)93% (Jan 15, 1:00 AM)30.27 "Hg (Jan 15, 1:00 AM)
Low25 °F (Jan 22, 12:30 AM)50% (Jan 14, 2:30 AM)29.30 "Hg (Jan 29, 1:00 AM)
Average35 °F84%29.96 "Hg
* Reported Jan 14 1:00 AM — Jan 29 1:00 AM, Poznan, Weather by CustomWeather, © 2014

Note: Actual official high and low records may vary slightly from our data, if they occured in-between our weather recording intervals... More about our weather records

Advertising

Poznan weather history for previous 24 hours

 ConditionsComfort  
Time TempWeatherWind HumidityBarometerVisibility
1:00 AM
Jan 29
37 °FLight rain. Passing clouds.14 mph70%29.30 "HgN/A
12:30 AM37 °FPassing clouds.17 mph70%29.33 "HgN/A
12:00 AM37 °FPassing clouds.16 mph70%29.33 "HgN/A
11:30 PM
Jan 28
37 °FLight snow. Passing clouds.16 mph70%29.36 "HgN/A
11:00 PM36 °FLight snow. Passing clouds.15 mph75%29.39 "HgN/A
10:30 PM36 °FPassing clouds.13 mph75%29.42 "HgN/A
10:00 PM36 °FPassing clouds.13 mph75%29.45 "HgN/A
9:30 PM36 °FPassing clouds.13 mph75%29.47 "HgN/A
9:00 PM36 °FClear.13 mph75%29.47 "Hg10 mi
8:30 PM36 °FPassing clouds.14 mph75%29.50 "HgN/A
8:00 PM37 °FPassing clouds.14 mph70%29.53 "HgN/A
7:30 PM37 °FPassing clouds.14 mph70%29.56 "HgN/A
7:00 PM37 °FPassing clouds.13 mph75%29.59 "HgN/A
6:30 PM37 °FPassing clouds.13 mph75%29.59 "HgN/A
6:00 PM37 °FPassing clouds.14 mph75%29.62 "HgN/A
5:30 PM37 °FPassing clouds.12 mph81%29.65 "HgN/A
5:00 PM37 °FPassing clouds.12 mph81%29.68 "HgN/A
4:30 PM37 °FPartly sunny.12 mph81%29.68 "HgN/A
4:00 PM39 °FPartly sunny.9 mph81%29.71 "HgN/A
3:30 PM39 °FPartly sunny.12 mph81%29.74 "HgN/A
3:00 PM39 °FPartly sunny.10 mph81%29.74 "HgN/A
2:30 PM39 °FPartly sunny.9 mph81%29.77 "HgN/A
2:00 PM37 °FMore clouds than sun.9 mph87%29.80 "HgN/A
1:30 PM37 °FMostly cloudy.7 mph87%29.80 "HgN/A
1:00 PM36 °FPartly sunny.8 mph93%29.83 "HgN/A
12:30 PM36 °FPartly sunny.10 mph93%29.83 "HgN/A
12:00 PM36 °FPartly sunny.9 mph87%29.86 "HgN/A
11:30 AM36 °FPartly sunny.8 mph87%29.86 "HgN/A
11:00 AM36 °FPartly sunny.7 mph87%29.89 "HgN/A
10:30 AM34 °FPartly sunny.8 mph87%29.89 "HgN/A
10:00 AM34 °FPartly sunny.10 mph87%29.92 "HgN/A
9:30 AM34 °FPartly sunny.12 mph87%29.92 "HgN/A
9:00 AM34 °FPartly sunny.9 mph87%29.92 "HgN/A
8:30 AM34 °FPartly sunny.9 mph87%29.92 "HgN/A
8:00 AM34 °FPartly sunny.12 mph87%29.92 "HgN/A
7:30 AM34 °FPassing clouds.12 mph87%29.92 "HgN/A
7:00 AM34 °FPassing clouds.10 mph93%29.92 "HgN/A
6:30 AM34 °FPassing clouds.8 mph93%29.92 "Hg5 mi
6:00 AM34 °FDrizzle. Low clouds.6 mph87%29.92 "Hg5 mi
5:30 AM34 °FDrizzle. Low clouds.8 mph87%29.92 "HgN/A
5:00 AM34 °FPassing clouds.8 mph93%29.92 "HgN/A
4:30 AM34 °FPassing clouds.10 mph93%29.92 "HgN/A
4:00 AM34 °FPassing clouds.8 mph93%29.92 "HgN/A
3:30 AM34 °FPassing clouds.9 mph93%29.92 "HgN/A
3:00 AM34 °FDrizzle. Low clouds.9 mph93%29.95 "HgN/A
2:30 AM34 °FDrizzle. Mostly cloudy.9 mph93%29.95 "HgN/A
2:00 AM34 °FMostly cloudy.8 mph93%29.95 "HgN/A
Weather by CustomWeather, © 2014

See weather overviewHow to use our weather pages